Regional Weather Roundup
Issued by NWS Northern Indiana

Home | Current Version | Previous Version | Graphics & Text | Print | Product List | Glossary On
Versions: 1 2 3 4 5 6 7 8 9 10 11 12 13 14 15 16 17 18 19 20 21 22 23 24 25 26 27 28 29 30 31 32 33 34 35 36 37 38 39 40 41 42 43 44 45 46 47 48 49 50
000
ASUS43 KIWX 201910
RWRIWX

KIWX WEATHER ROUNDUP
NATIONAL WEATHER SERVICE NORTHERN INDIANA
300 PM EDT FRI OCT 20 2017

NOTE: "FAIR" INDICATES FEW OR NO CLOUDS BELOW 12,000 FEET WITH NO
SIGNIFICANT WEATHER AND/OR OBSTRUCTIONS TO VISIBILITY.

* THESE STATIONS ARE NOT UNDER NWS QUALITY CONTROL. THEY ALSO MAY NOT
  REPORT WEATHER SUCH AS PRECIPITATION OR FOG.

INZ001>027-202000-
NORTHERN INDIANA

CITY           SKY/WX    TMP DP  RH WIND       PRES   REMARKS
GARY*          MOSUNNY   79  46  31 SW12      30.12F
VALPARAISO     SUNNY     79  52  38 S9G18     30.14F
MICHIGAN CITY* SUNNY     77  52  41 S10       30.13F
LAPORTE*       SUNNY     76  52  43 S12G17    30.15F
KNOX*          SUNNY     77  50  38 SW12      30.15F
SOUTH BEND     SUNNY     75  51  43 S14       30.15F
ELKHART*       SUNNY     75  50  41 S12G17    30.16F
GOSHEN         SUNNY     75  50  41 S14       30.16F
MONTICELLO*    SUNNY     76  48  37 S13       30.16F
LOGANSPORT*    SUNNY     75  50  41 S14       30.18F
WARSAW*        SUNNY     73  52  46 SW7       30.17F
AUBURN*        SUNNY     75  50  41 S7        30.20F
FORT WAYNE     MOSUNNY   76  51  41 S8G17     30.19F
HUNTINGTON*    SUNNY     75  49  40 SW6       30.19F
PERU/GRISSOM   SUNNY     76  51  40 SW14      30.17F

$$
INZ028>050-202000-
CENTRAL INDIANA

CITY           SKY/WX    TMP DP  RH WIND       PRES   REMARKS
LAFAYETTE      SUNNY     75  51  43 S10G18    30.16F
KOKOMO*        SUNNY     76  52  43 S13       30.19F
MUNCIE*        SUNNY     78  51  38 S3        30.19F
INDIANAPOLIS   MOSUNNY   76  51  41 S12G20    30.20F

$$
MIZ043>046-050>051-056>058-064>065-071>073-077>080-202000-
SOUTHWEST LOWER MICHIGAN

CITY           SKY/WX    TMP DP  RH WIND       PRES   REMARKS
BATTLE CREEK   SUNNY     75  52  44 SW13G23   30.17F
BENTON HARBOR  SUNNY     78  50  37 SW13      30.13F
COLDWATER*     SUNNY     76  47  36 S7        30.17F
HILLSDALE*     SUNNY     73  48  40 S8G16     30.19F
HOLLAND        SUNNY     77  49  37 SW15G25   30.13F
GRAND RAPIDS   PTSUNNY   77  50  38 SW15      30.13F
KALAMAZOO      SUNNY     75  50  41 S15       30.15F
STURGIS*       SUNNY     75  52  43 SW15      30.16F
THREE RIVERS*  FAIR      76  52  42 SW12      30.16F

$$
OHZ001>008-015>018-024>025-202000-
NORTHWEST OHIO

CITY           SKY/WX    TMP DP  RH WIND       PRES   REMARKS
WAUSEON*       FAIR      77  48  36 S12       30.19F
DEFIANCE       SUNNY     75  50  41 S9G17     30.19F
FINDLAY        SUNNY     76  45  33 S9        30.21F
TOLEDO EXPRESS SUNNY     75  50  41 S8        30.20F
TOLEDO METCALF SUNNY     74  46  36 S9        30.22F
LIMA           SUNNY     75  51  43 S8        30.21F

$$
AND FOR LAKE MICHIGAN COASTAL AND OPEN LAKE BUOY OBSERVATIONS

STATION/POSITION TEMP    WIND        PRES    VSBY  WAVE
                 AIR SEA DIR/SP/G                  HT/PER
                 (F)     (DEG/KT/KT) (MB)    (MI)  (FT/S)
CALUMET HARBOR    76     180/ 13/ 18 1018.8F
MICHIGAN CITY     74     180/ 15/ 17   N/A
BURNS HARBOR      75     180/  9/ 18 1020.7F
SAINT JOSEPH      67     210/  8/  9 1021.0
SOUTH LAKE BUOY   62 61  190/ 14/ 16 1020.0          2/ 4
4 MI NW BRIDGMAN  65 59  220/  6/  8 1020.2          1/ 3
MICHIGAN CITY     69 58  210/ 10/ 12   N/A           1/ 2

$$
&&



USA.gov is the U.S. government's official web portal to all federal, state and local government web resources and services.